When you browse on this site, cookies collect data to enhance your experience and personalize the content and advertising you see.
Visit our Privacy Policy to learn more. By continuing to use the site, you agree to this use of cookies and data.
  • In Hungary
  • List of Countries
  • For 7 days
  • Water Temperature
  • Weather Map
  • News
  • Weather Widgets
  • user-avatar
    Login

    Hourly Weather Kurakino

    Today, 16 February, Sunday

    Time Temperature Precipitation Wind Pressure Humidity
    00:00 -2°C° 0 mm 3 mps 751 mmHg 88%
    01:00 -2°C° 0 mm 3 mps 751 mmHg 88%
    02:00 -2°C° 0 mm 3 mps 750 mmHg 90%
    03:00 -2°C° 0 mm 3 mps 750 mmHg 88%
    04:00 -3°C° 0 mm 4 mps 750 mmHg 87%
    05:00 -3°C° 0 mm 4 mps 749 mmHg 86%
    06:00 -2°C° 0 mm 4 mps 749 mmHg 85%
    07:00 -2°C° 0 mm 4 mps 749 mmHg 84%
    08:00 -2°C° 0 mm 5 mps 749 mmHg 81%
    09:00 -2°C° 0 mm 5 mps 748 mmHg 80%
    10:00 -1°C° 0 mm 5 mps 748 mmHg 79%
    11:00 -1°C° 0 mm 5 mps 748 mmHg 78%
    12:00 0°C° 0 mm 5 mps 747 mmHg 76%
    13:00 0°C° 0 mm 5 mps 747 mmHg 74%
    14:00 -1°C° 0 mm 6 mps 747 mmHg 73%
    15:00 -1°C° 0 mm 6 mps 746 mmHg 73%
    16:00 -1°C° 0 mm 6 mps 746 mmHg 73%
    17:00 -2°C° 0 mm 6 mps 745 mmHg 74%
    18:00 -2°C° 0 mm 6 mps 745 mmHg 74%
    19:00 -2°C° 0 mm 6 mps 744 mmHg 74%
    20:00 -2°C° 0 mm 6 mps 744 mmHg 74%
    21:00 -2°C° 0 mm 6 mps 743 mmHg 75%
    22:00 -2°C° 0 mm 6 mps 742 mmHg 76%
    23:00 -2°C° 0 mm 6 mps 742 mmHg 76%

    Tomorrow, 17 February, Monday

    Time Temperature Precipitation Wind Pressure Humidity
    00:00 -2°C° 0.1 mm 6 mps 741 mmHg 78%
    01:00 -2°C° 0.1 mm 6 mps 741 mmHg 79%
    02:00 -2°C° 0.1 mm 6 mps 740 mmHg 81%
    03:00 -1°C° 0.3 mm 7 mps 740 mmHg 83%
    04:00 -1°C° 0.3 mm 7 mps 739 mmHg 85%
    05:00 -1°C° 0.3 mm 7 mps 738 mmHg 87%
    06:00 -1°C° 0 mm 7 mps 738 mmHg 85%
    07:00 -1°C° 0 mm 7 mps 738 mmHg 83%
    08:00 -1°C° 0 mm 7 mps 738 mmHg 80%
    09:00 0°C° 0 mm 7 mps 737 mmHg 79%
    10:00 0°C° 0 mm 7 mps 737 mmHg 78%
    11:00 +2°C° 0 mm 7 mps 737 mmHg 77%
    12:00 +2°C° 0.1 mm 7 mps 737 mmHg 78%
    13:00 +2°C° 0.1 mm 7 mps 737 mmHg 79%
    14:00 +2°C° 0.1 mm 7 mps 737 mmHg 80%
    15:00 +2°C° 0.1 mm 6 mps 737 mmHg 82%
    16:00 +3°C° 0.1 mm 6 mps 737 mmHg 84%
    17:00 +3°C° 0.1 mm 5 mps 738 mmHg 87%
    18:00 +2°C° 0 mm 5 mps 738 mmHg 84%
    19:00 +2°C° 0 mm 5 mps 739 mmHg 82%
    20:00 +1°C° 0 mm 4 mps 740 mmHg 79%
    21:00 +1°C° 0 mm 4 mps 740 mmHg 80%
    22:00 0°C° 0 mm 4 mps 740 mmHg 80%
    23:00 0°C° 0 mm 4 mps 740 mmHg 81%

    Day after tomorrow, 18 February, Tuesday

    Time Temperature Precipitation Wind Pressure Humidity
    00:00 0°C° 0 mm 4 mps 740 mmHg 81%
    01:00 0°C° 0 mm 4 mps 740 mmHg 82%
    02:00 -1°C° 0 mm 4 mps 740 mmHg 83%
    03:00 0°C° 0 mm 4 mps 740 mmHg 84%
    04:00 0°C° 0 mm 4 mps 740 mmHg 85%
    05:00 0°C° 0 mm 4 mps 739 mmHg 86%
    06:00 0°C° 0 mm 4 mps 739 mmHg 86%
    07:00 0°C° 0 mm 4 mps 739 mmHg 86%
    08:00 0°C° 0 mm 4 mps 739 mmHg 87%
    09:00 +1°C° 0 mm 5 mps 739 mmHg 83%
    10:00 +2°C° 0 mm 5 mps 739 mmHg 79%
    11:00 +2°C° 0 mm 5 mps 739 mmHg 75%
    12:00 +3°C° 0 mm 5 mps 739 mmHg 74%
    13:00 +4°C° 0 mm 4 mps 739 mmHg 74%
    14:00 +4°C° 0 mm 4 mps 738 mmHg 74%
    15:00 +3°C° 0 mm 4 mps 738 mmHg 77%
    16:00 +3°C° 0 mm 3 mps 738 mmHg 80%
    17:00 +2°C° 0 mm 3 mps 738 mmHg 83%
    18:00 +2°C° 0 mm 3 mps 738 mmHg 84%
    19:00 +1°C° 0 mm 3 mps 738 mmHg 85%
    20:00 +1°C° 0 mm 3 mps 738 mmHg 86%
    21:00 0°C° 0 mm 4 mps 738 mmHg 88%
    22:00 0°C° 0 mm 4 mps 738 mmHg 90%
    23:00 0°C° 0 mm 4 mps 737 mmHg 92%

    19 February, Wednesday

    Time Temperature Precipitation Wind Pressure Humidity
    00:00 0°C° 0.3 mm 4 mps 738 mmHg 91%
    01:00 0°C° 0.3 mm 4 mps 738 mmHg 90%
    02:00 0°C° 0.3 mm 4 mps 738 mmHg 90%
    03:00 0°C° 0 mm 4 mps 738 mmHg 88%
    04:00 -1°C° 0 mm 4 mps 738 mmHg 86%
    05:00 -1°C° 0 mm 4 mps 738 mmHg 84%
    06:00 -1°C° 0 mm 4 mps 738 mmHg 86%
    07:00 -1°C° 0 mm 4 mps 739 mmHg 88%
    08:00 -1°C° 0 mm 4 mps 739 mmHg 91%
    09:00 -1°C° 0 mm 4 mps 739 mmHg 88%
    10:00 0°C° 0 mm 4 mps 740 mmHg 86%
    11:00 0°C° 0 mm 4 mps 740 mmHg 84%
    12:00 0°C° 0.1 mm 4 mps 740 mmHg 81%
    13:00 +1°C° 0.1 mm 4 mps 741 mmHg 78%
    14:00 +1°C° 0.1 mm 4 mps 741 mmHg 75%
    15:00 0°C° 0 mm 4 mps 741 mmHg 76%
    16:00 0°C° 0 mm 4 mps 741 mmHg 78%
    17:00 0°C° 0 mm 3 mps 740 mmHg 80%
    18:00 0°C° 0 mm 3 mps 741 mmHg 81%
    19:00 0°C° 0 mm 3 mps 741 mmHg 82%
    20:00 0°C° 0 mm 3 mps 741 mmHg 82%
    21:00 0°C° 0 mm 3 mps 741 mmHg 83%
    22:00 0°C° 0 mm 3 mps 741 mmHg 84%
    23:00 -1°C° 0 mm 3 mps 741 mmHg 84%

    20 February, Thursday

    Time Temperature Precipitation Wind Pressure Humidity
    00:00 -1°C° 0 mm 3 mps 741 mmHg 86%
    01:00 -1°C° 0 mm 3 mps 741 mmHg 87%
    02:00 -1°C° 0 mm 3 mps 741 mmHg 88%
    03:00 -1°C° 0 mm 3 mps 741 mmHg 88%
    04:00 -1°C° 0 mm 3 mps 741 mmHg 89%
    05:00 -1°C° 0 mm 3 mps 740 mmHg 90%
    06:00 -1°C° 0 mm 3 mps 741 mmHg 90%
    07:00 -1°C° 0 mm 3 mps 741 mmHg 90%
    08:00 -1°C° 0 mm 3 mps 741 mmHg 90%
    09:00 0°C° 0 mm 3 mps 742 mmHg 86%
    10:00 +1°C° 0 mm 3 mps 742 mmHg 83%
    11:00 +1°C° 0 mm 3 mps 742 mmHg 79%
    12:00 +1°C° 0 mm 3 mps 743 mmHg 78%
    13:00 +1°C° 0 mm 3 mps 743 mmHg 77%
    14:00 +2°C° 0 mm 3 mps 743 mmHg 76%
    15:00 +2°C° 0 mm 2 mps 743 mmHg 78%
    16:00 +1°C° 0 mm 2 mps 743 mmHg 80%
    17:00 +1°C° 0 mm 2 mps 743 mmHg 82%
    18:00 +2°C° 0 mm 1 mps 744 mmHg 83%
    19:00 +2°C° 0 mm 1 mps 744 mmHg 83%
    20:00 +2°C° 0 mm 1 mps 745 mmHg 84%
    21:00 +2°C° 0.1 mm 1 mps 745 mmHg 88%
    22:00 -1°C° 0.1 mm 2 mps 745 mmHg 91%
    23:00 -1°C° 0.1 mm 2 mps 745 mmHg 95%

    21 February, Friday

    Time Temperature Precipitation Wind Pressure Humidity
    00:00 -1°C° 0.1 mm 2 mps 745 mmHg 96%
    01:00 -1°C° 0.1 mm 2 mps 745 mmHg 96%
    02:00 -1°C° 0.1 mm 2 mps 746 mmHg 97%
    03:00 -1°C° 0 mm 2 mps 745 mmHg 96%
    04:00 -2°C° 0 mm 2 mps 745 mmHg 96%
    05:00 0°C° 0 mm 1 mps 745 mmHg 96%
    06:00 -2°C° 0 mm 2 mps 745 mmHg 96%
    07:00 -2°C° 0 mm 2 mps 745 mmHg 96%
    08:00 -2°C° 0 mm 2 mps 745 mmHg 95%
    15:00 +1°C° 0 mm 3 mps 744 mmHg 80%
    16:00 +2°C° 0 mm 2 mps 744 mmHg 82%
    17:00 +1°C° 0 mm 2 mps 744 mmHg 84%
    18:00 +1°C° 0 mm 2 mps 744 mmHg 85%
    19:00 0°C° 0 mm 3 mps 744 mmHg 86%
    20:00 0°C° 0 mm 3 mps 744 mmHg 88%
    21:00 -1°C° 0 mm 3 mps 744 mmHg 87%
    22:00 -1°C° 0 mm 3 mps 744 mmHg 85%
    23:00 -1°C° 0 mm 3 mps 743 mmHg 84%
    Show more